Tracking 34142 objects as of 18-May-2026
HD Live streaming from Space Station
objects crossing your sky now

PRSC-E03

Track PRSC-E03 now!
10-day predictions


NORAD ID: 68835
Int'l Code: 2026-092A
Perigee: 551.5 km
Apogee: 556.5 km
Inclination: 38.0 °
Period: 95.6 minutes
Semi major axis: 6924 km
RCS: Unknown
Launch date: April 25, 2026
Source: People's Republic of China (PRC)
Launch site: Taiyaun Space Center, China (TSC)
Your satellite tracking list
Your tracking list is empty




NASA's NSSDC Master Catalog

Two Line Element Set (TLE):
1 68835U 26092A   26137.76630015  .00001601  00000-0  11357-3 0  9994
2 68835  38.0013 269.0470 0003577 157.1022 202.9899 15.06519435  3365
Source of the keplerian elements: AFSPC